This is the latest recevied weather packets stored in our database for station/object W4TJP. If no packets are shown the sender has not sent any weather packets the latest 10 day(s).
| Time | Temp. | Humidity | Pressure | Rain* | Wind** | Luminosity | Snow |
|---|---|---|---|---|---|---|---|
| 1777472972 | 17.22° C | 96% | 1012.1 hPa | 0 mm | - | 92 W/m² | - |
| 1777472669 | 17.22° C | 96% | 1012 hPa | 0 mm | - | 107 W/m² | - |
| 1777472366 | 17.22° C | 96% | 1012 hPa | 0 mm | - | 100 W/m² | - |
| 1777472064 | 17.22° C | 96% | 1012 hPa | 0 mm | - | 86 W/m² | - |
| 1777471759 | 17.22° C | 96% | 1012.4 hPa | 0 mm | - | 81 W/m² | - |
| 1777471456 | 17.22° C | 96% | 1011.9 hPa | 0 mm | - | 127 W/m² | - |
| 1777471152 | 16.67° C | 96% | 1012 hPa | 0 mm | - | 75 W/m² | - |
| 1777470849 | 16.67° C | 96% | 1011.9 hPa | 0 mm | - | 95 W/m² | - |
| 1777470546 | 16.67° C | 97% | 1012 hPa | 0 mm | - | 83 W/m² | - |
| 1777470242 | 16.67° C | 97% | 1012 hPa | 0 mm | - | 105 W/m² | - |
| 1777469938 | 16.11° C | 98% | 1012.3 hPa | 0 mm | - | 71 W/m² | - |
| 1777469634 | 16.11° C | 98% | 1012.1 hPa | 0 mm | - | 61 W/m² | - |
| 1777469330 | 16.67° C | 99% | 1012.1 hPa | 0 mm | - | 37 W/m² | - |
| 1777469025 | 16.11° C | 99% | 1012 hPa | 0 mm | - | 52 W/m² | - |
| 1777468720 | 16.11° C | 98% | 1012.2 hPa | 0 mm | - | 80 W/m² | - |
| 1777468416 | 16.11° C | 99% | 1012.2 hPa | 0 mm | - | 63 W/m² | - |
| 1777468113 | 16.11° C | 98% | 1012.4 hPa | 0 mm | - | 50 W/m² | - |
| 1777467810 | 16.11° C | 99% | 1012.4 hPa | 0 mm | - | 68 W/m² | - |
| 1777467505 | 15.56° C | 99% | 1012.4 hPa | 0 mm | - | 55 W/m² | - |
| 1777467200 | 15.56° C | 99% | 1012.4 hPa | 0 mm | - | 58 W/m² | - |
| 1777466898 | 15.56° C | 99% | 1012.5 hPa | 0 mm | - | 73 W/m² | - |
| 1777466595 | 15.56° C | 99% | 1012.5 hPa | 0 mm | - | 76 W/m² | - |
| 1777466292 | 15.56° C | 99% | 1012.5 hPa | 0 mm | - | 77 W/m² | - |
| 1777465988 | 15.56° C | 99% | 1012.5 hPa | 0 mm | - | 81 W/m² | - |
| 1777465684 | 15.56° C | 99% | 1012.5 hPa | 0 mm | - | 105 W/m² | - |
* Rain latest hour (hover to see other rain measurements)
** Current wind speed in m/s (hover to see current wind gust speed)